[[{"header":{"parameterUnit":"m.s-1","parameterCategory":1,"la1":30.2991,"la2":30.254,"lo1":-89.0895,"lo2":-89.0444,"dy":0.0017,"dx":0.0017,"nx":28,"ny":28,"refTime":"2024-03-24T03:00:00:Z","depth":0,"parameterNumber":2,"parameterNumberName":"U-component_of_WINDS"},"data":[0,0,0,0,0,0,0,0,0,0,0,0,0,0,0,0,0,0,0,0,0,0,0,0,0,0,0,0,0,0,0,0,0,0,0,0,0,0,0,0,0,0,0,0,0,0,0,0,0,0,0,0,0,0,0,0,0,0,-6.5097,-6.51,0,-6.5392,-6.5395,-6.5399,-6.5516,-6.5515,-6.5515,-6.5514,-6.5817,-6.5825,-6.5834,0,0,0,0,0,0,0,0,0,0,0,0,0,-6.4635,-6.4643,-6.5097,-6.51,-6.5104,-6.5392,-6.5396,-6.54,-6.5516,-6.5515,-6.5515,-6.5514,-6.5814,-6.5824,-6.5834,0,0,0,0,0,0,0,0,0,0,0,0,0,-6.4873,-6.4645,-6.5096,-6.5197,-6.5209,-6.5391,-6.5396,-6.5401,-6.5517,-6.5515,-6.5514,-6.5513,-6.581,-6.5823,-6.5836,-6.5939,0,0,-6.5876,-6.5882,0,0,0,0,0,0,0,0,-6.4859,-6.489,-6.5178,-6.519,-6.5204,-6.5416,-6.5344,-6.5581,-6.5517,-6.54,-6.5514,-6.5513,-6.5684,-6.5708,-6.5766,-6.5953,-6.5966,-6.5877,-6.5885,-6.5891,-6.5894,0,0,0,0,0,0,0,-6.4843,-6.4878,-6.5214,-6.5182,-6.5198,-6.5228,-6.526,-6.5389,-6.5545,-6.541,-6.5419,-6.5452,-6.5691,-6.5753,-6.5773,-6.5971,-6.5877,-6.5888,-6.5897,-6.5902,-6.626,-6.6261,0,0,0,0,0,0,-6.481,-6.4863,-6.5204,-6.5222,-6.5025,-6.5237,-6.5273,-6.5349,-6.5544,-6.5572,-6.5453,-6.5457,-6.5731,-6.5758,-6.5784,-6.5919,-6.5891,-6.5903,-6.5911,-6.6258,-6.626,-6.6262,0,0,0,0,0,0,-6.4799,-6.4839,-6.5192,-6.5046,-6.5093,-6.5246,-6.533,-6.5356,-6.5417,-6.5576,-6.5605,-6.5487,-6.5731,-6.5766,-6.59,-6.5931,-6.5909,-6.5921,-6.6256,-6.6259,-6.6261,-6.6187,0,0,0,0,0,0,-6.4785,-6.4834,-6.4875,-6.5046,-6.51,-6.5302,-6.5332,-6.5362,-6.544,-6.5447,-6.5616,-6.5643,-6.5733,-6.588,-6.5913,-6.5948,-6.5931,-6.6254,-6.6257,-6.626,-6.6187,-6.6186,-6.6186,0,0,0,0,0,-6.4768,-6.4842,-6.4876,-6.4917,-6.5154,-6.5304,-6.5335,-6.5437,-6.5441,-6.5484,-6.5586,-6.5637,-6.5922,-6.5893,-6.5931,-6.5971,-6.6252,-6.6256,-6.626,-6.6187,-6.6186,-6.6186,0,0,0,0,0,0,-6.4671,-6.4866,-6.4906,-6.5037,-6.5153,-6.5323,-6.5379,-6.5433,-6.5549,-6.5552,-6.5674,-6.5711,-6.5835,-6.5917,-6.588,-6.6081,-6.6091,-6.6103,-6.6023,-6.6024,-6.6023,-6.6,-6.5942,0,0,0,0,0,-6.4664,-6.4769,-6.4935,-6.5035,-6.5091,-6.5225,-6.5294,-6.5362,-6.5487,-6.5537,-6.5649,-6.5768,-6.5885,-6.5959,-6.6075,-6.62,-6.6239,-6.6247,-6.6246,-6.6244,-6.6252,-6.6325,-6.6331,-6.6274,-6.6274,-6.6274,0,0,-6.4652,-6.4772,-6.4831,-6.5018,-6.5116,-6.5222,-6.5265,-6.5376,-6.5456,-6.5554,-6.5687,-6.5773,-6.5915,-6.6045,-6.6108,-6.6117,-6.6277,-6.6249,-6.6247,-6.6256,-6.6329,-6.6335,-6.6339,-6.6276,-6.6276,-6.6275,0,0,-6.4684,-6.4786,-6.488,-6.4977,-6.5125,-6.5214,-6.5236,-6.5399,-6.546,-6.5596,-6.5672,-6.577,-6.5968,-6.6065,-6.6141,-6.6211,-6.6263,-6.6246,-6.6242,-6.6311,-6.6316,-6.632,-6.6345,-6.6352,-6.6254,-6.6254,-6.6254,0,-6.4651,-6.4814,-6.4922,-6.5029,-6.5109,-6.5203,-6.5299,-6.5388,-6.5566,-6.5619,-6.5627,-6.5878,-6.598,-6.6134,-6.6152,-6.621,-6.624,-6.6227,-6.6306,-6.6312,-6.6318,-6.6343,-6.6352,-6.6251,-6.6251,-6.6251,-6.6252,0,-6.4765,-6.4877,-6.4935,-6.5104,-6.5192,-6.5292,-6.5416,-6.5491,-6.5553,-6.5641,-6.5778,-6.5904,-6.6047,-6.6089,-6.6151,-6.6253,-6.6254,-6.6282,-6.6295,-6.6318,-6.6344,-6.6354,-6.6246,-6.6247,-6.6248,-6.6249,0,0,-6.4742,-6.4971,-6.499,-6.5068,-6.5239,-6.5328,-6.5433,-6.5573,-6.5635,-6.5755,-6.5847,-6.6013,-6.6041,-6.6127,-6.62,-6.6261,-6.6309,-6.6283,-6.6288,-6.6282,-6.6429,-6.6406,-6.6415,-6.6344,-6.6347,-6.6349,-6.6417,0,-6.4797,-6.4989,-6.509,-6.524,-6.5345,-6.5436,-6.5529,-6.5643,-6.5728,-6.583,-6.5926,-6.6041,-6.6069,-6.6122,-6.6186,-6.6289,-6.6339,-6.6286,-6.6431,-6.6435,-6.6391,-6.6429,-6.6405,-6.6463,-6.6428,-6.643,-6.6431,0,-6.4886,-6.5004,-6.5164,-6.5323,-6.5371,-6.5451,-6.5588,-6.5685,-6.5817,-6.5875,-6.5971,-6.6043,-6.6159,-6.6163,-6.6324,-6.6285,-6.6351,-6.6411,-6.6415,-6.6432,-6.6433,-6.6446,-6.6484,-6.6492,-6.6448,-6.6447,-6.6445,0,-6.4852,-6.5052,-6.5174,-6.5238,-6.5426,-6.5481,-6.5562,-6.5693,-6.5771,-6.5892,-6.5944,-6.6075,-6.6147,-6.6248,-6.6354,-6.6348,-6.6505,-6.6518,-6.6557,-6.6554,-6.6585,-6.6581,-6.6633,-6.6628,-6.6628,-6.6628,-6.6627,0,-6.4902,-6.4996,-6.5162,-6.5236,-6.5345,-6.546,-6.5565,-6.5653,-6.5769,-6.5863,-6.5951,-6.6037,-6.6173,-6.6276,-6.636,-6.6481,-6.6513,-6.6563,-6.6584,-6.6555,-6.6548,-6.6599,-6.6597,-6.663,-6.663,-6.6629,-6.6629,0,-6.4883,-6.4997,-6.5136,-6.5303,-6.5347,-6.542,-6.5563,-6.5639,-6.573,-6.5848,-6.5882,-6.6024,-6.6151,-6.6267,-6.6435,-6.6492,-6.6614,-6.6641,-6.6569,-6.658,-6.6612,-6.6607,-6.6698,-6.6715,-6.6698,-6.6698,-6.6698,0,-6.4906,-6.4981,-6.5156,-6.5225,-6.5304,-6.5414,-6.5495,-6.5612,-6.5692,-6.5848,-6.5906,-6.6039,-6.6151,-6.6349,-6.6468,-6.6597,-6.6628,-6.6651,-6.6648,-6.6616,-6.6628,-6.6622,-6.663,-6.6649,-6.6648,-6.6648,-6.6648,0,-6.4936,-6.4989,-6.5101,-6.5233,-6.5326,-6.5436,-6.5549,-6.56,-6.5739,-6.5825,-6.5955,-6.6042,-6.6214,-6.6345,-6.6488,-6.6573,-6.6633,-6.6648,-6.6664,-6.6634,-6.6589,-6.6613,-6.6564,-6.6645,-6.6645,-6.6646,-6.6646,-6.6646,-6.4939,-6.501,-6.5144,-6.5266,-6.5363,-6.5466,-6.5546,-6.5647,-6.5757,-6.5906,-6.5969,-6.6101,-6.6233,-6.6431,-6.6515,-6.6621,-6.6633,-6.6656,-6.6662,-6.6665,-6.6659,-6.6572,-6.6647,-6.6648,-6.6648,-6.6648,-6.6648,0,-6.4973,-6.5064,-6.5175,-6.533,-6.5426,-6.5475,-6.5602,-6.5679,-6.5794,-6.5912,-6.6021,-6.6171,-6.6298,-6.6427,-6.6562,-6.6622,-6.6653,-6.6653,-6.665,-6.6668,-6.6641,-6.6613,-6.6626,-6.6626,-6.6626,-6.6626,-6.6626,-6.6626,-6.5002,-6.5124,-6.5193,-6.5364,-6.5455,-6.5585,-6.5653,-6.5749,-6.5844,-6.6007,-6.6113,-6.6196,-6.6319,-6.6464,-6.6584,-6.6619,-6.6664,-6.6656,-6.6698,-6.667,-6.667,-6.6671,-6.6646,-6.6665,-6.6665,-6.6718,-6.6718,-6.6718]},{"header":{"parameterUnit":"m.s-1","parameterCategory":1,"la1":30.2991,"la2":30.254,"lo1":-89.0895,"lo2":-89.0444,"dy":0.0017,"dx":0.0017,"nx":28,"ny":28,"refTime":"2024-03-24T03:00:00:Z","depth":0,"parameterNumber":3,"parameterNumberName":"V-component_of_WINDS"},"data":[0,0,0,0,0,0,0,0,0,0,0,0,0,0,0,0,0,0,0,0,0,0,0,0,0,0,0,0,0,0,0,0,0,0,0,0,0,0,0,0,0,0,0,0,0,0,0,0,0,0,0,0,0,0,0,0,0,0,6.2962,6.2963,0,6.3041,6.3042,6.3043,6.3042,6.3041,6.304,6.3039,6.3117,6.312,6.3123,0,0,0,0,0,0,0,0,0,0,0,0,0,6.2809,6.2812,6.2962,6.2963,6.2964,6.3041,6.3042,6.3043,6.3042,6.3041,6.3039,6.3038,6.3116,6.3119,6.3123,0,0,0,0,0,0,0,0,0,0,0,0,0,6.288,6.2813,6.2962,6.2973,6.2974,6.3041,6.3042,6.3044,6.3042,6.3041,6.3039,6.3037,6.3115,6.3119,6.3124,6.3184,0,0,6.3138,6.314,0,0,0,0,0,0,0,0,6.2876,6.2886,6.297,6.2972,6.2974,6.303,6.3017,6.3091,6.3043,6.3016,6.3039,6.3037,6.3089,6.3096,6.3114,6.3188,6.3191,6.3138,6.3141,6.3143,6.3144,0,0,0,0,0,0,0,6.2871,6.2883,6.2993,6.2971,6.2974,6.2973,6.2982,6.3031,6.306,6.3019,6.3019,6.3028,6.309,6.3109,6.3116,6.3192,6.3138,6.3142,6.3145,6.3147,6.3323,6.3325,0,0,0,0,0,0,6.2864,6.2879,6.2991,6.2996,6.292,6.2978,6.2987,6.3014,6.306,6.3066,6.3029,6.3028,6.3102,6.311,6.3118,6.3195,6.3143,6.3147,6.315,6.3321,6.3324,6.3326,0,0,0,0,0,0,6.2861,6.2875,6.2988,6.2937,6.2952,6.2982,6.3012,6.3016,6.3036,6.3068,6.3073,6.3044,6.3101,6.3112,6.3169,6.3197,6.3149,6.3153,6.3319,6.3322,6.3325,6.3346,0,0,0,0,0,0,6.2857,6.2873,6.2896,6.2938,6.2954,6.3037,6.3014,6.3019,6.3044,6.3043,6.3084,6.3089,6.3101,6.3162,6.3173,6.3203,6.3157,6.3316,6.332,6.3324,6.3343,6.335,6.3355,0,0,0,0,0,6.2851,6.2898,6.2898,6.2911,6.2984,6.3038,6.3048,6.3062,6.3046,6.307,6.3092,6.3087,6.3192,6.3168,6.3181,6.3212,6.3315,6.3319,6.3323,6.3341,6.3348,6.3355,0,0,0,0,0,0,6.2857,6.2903,6.2903,6.2965,6.2998,6.3038,6.3068,6.3069,6.3106,6.3103,6.3118,6.3128,6.3185,6.3204,6.3176,6.3275,6.3252,6.3259,6.326,6.3268,6.3274,6.3269,6.3161,0,0,0,0,0,6.2866,6.2906,6.2944,6.2995,6.3012,6.3037,6.3061,6.307,6.3104,6.3118,6.3143,6.3176,6.3217,6.3243,6.3282,6.3346,6.3356,6.3374,6.338,6.3385,6.3391,6.3429,6.3439,6.334,6.334,6.334,0,0,6.2883,6.2914,6.2938,6.2997,6.3024,6.3066,6.3049,6.3093,6.3125,6.3124,6.3181,6.3201,6.3238,6.33,6.3328,6.3317,6.3421,6.339,6.3394,6.3398,6.3435,6.3444,6.3452,6.3343,6.3342,6.3342,0,0,6.2938,6.2964,6.3011,6.3039,6.308,6.3097,6.3109,6.315,6.3164,6.3221,6.3222,6.326,6.3329,6.3357,6.338,6.345,6.3448,6.3462,6.3493,6.353,6.3538,6.3545,6.3572,6.3581,6.3468,6.3468,6.3468,0,6.2954,6.3019,6.3034,6.3081,6.3107,6.3111,6.3159,6.3185,6.3236,6.3255,6.3242,6.3332,6.3357,6.3427,6.3445,6.3462,6.3477,6.3457,6.3536,6.3543,6.355,6.3576,6.3586,6.3469,6.3469,6.3469,6.3469,0,6.3038,6.3083,6.3116,6.3168,6.3199,6.3245,6.3269,6.3298,6.3304,6.3323,6.3383,6.3414,6.3461,6.3478,6.3483,6.355,6.3542,6.3532,6.351,6.356,6.3585,6.3595,6.3471,6.3471,6.347,6.347,0,0,6.3097,6.316,6.3172,6.3197,6.3245,6.328,6.3328,6.3376,6.3401,6.3437,6.3479,6.3539,6.3532,6.3558,6.3567,6.36,6.3657,6.3587,6.3588,6.3601,6.3734,6.3743,6.3754,6.3656,6.3658,6.3659,6.3732,0,6.3158,6.3244,6.3261,6.3336,6.338,6.3385,6.3427,6.3461,6.348,6.352,6.3541,6.3585,6.357,6.3587,6.3619,6.3643,6.3684,6.3637,6.3695,6.3697,6.3687,6.3766,6.3774,6.3842,6.3741,6.3743,6.3744,0,6.324,6.3282,6.3362,6.3407,6.3426,6.3463,6.351,6.3548,6.3587,6.3599,6.3631,6.3637,6.3688,6.3663,6.3735,6.3703,6.3728,6.3743,6.3746,6.3753,6.3725,6.3777,6.3863,6.3874,6.3759,6.3758,6.3757,0,6.3279,6.3353,6.3412,6.3433,6.3486,6.3514,6.3537,6.3575,6.3604,6.3645,6.3664,6.3709,6.3735,6.377,6.3789,6.3769,6.3861,6.3836,6.3873,6.3873,6.3893,6.3891,6.3986,6.3906,6.3906,6.3906,6.3905,0,6.3346,6.3395,6.343,6.3466,6.3523,6.3542,6.3597,6.362,6.3655,6.3696,6.3702,6.374,6.3763,6.3805,6.382,6.3878,6.3889,6.3901,6.3905,6.3902,6.39,6.3919,6.3915,6.3908,6.3908,6.3907,6.3907,0,6.3398,6.3423,6.3488,6.3534,6.3547,6.3587,6.3627,6.3663,6.3683,6.3736,6.3749,6.3781,6.3831,6.3854,6.3915,6.3925,6.3993,6.3992,6.398,6.3982,6.4018,6.4016,6.4129,6.4146,6.4053,6.4054,6.4055,0,6.344,6.3479,6.3531,6.356,6.3585,6.363,6.3661,6.3682,6.3713,6.3763,6.3794,6.3844,6.3886,6.3966,6.3995,6.4043,6.4044,6.4081,6.4051,6.4048,6.4048,6.4046,6.4051,6.4087,6.4087,6.4088,6.4089,0,6.3513,6.3525,6.3569,6.3619,6.3656,6.3695,6.3734,6.3757,6.3784,6.382,6.3872,6.3905,6.3969,6.402,6.4071,6.4095,6.4097,6.4098,6.411,6.4107,6.41,6.4107,6.3997,6.4095,6.4095,6.4094,6.4094,6.4094,6.3564,6.36,6.3643,6.3693,6.3725,6.3762,6.3799,6.3825,6.387,6.3925,6.3934,6.3991,6.4032,6.41,6.4126,6.4171,6.4163,6.4178,6.4183,6.4187,6.4191,6.4092,6.418,6.418,6.418,6.418,6.418,0,6.3639,6.3668,6.3714,6.377,6.381,6.381,6.3853,6.3887,6.3937,6.3976,6.4018,6.408,6.413,6.4164,6.4215,6.4245,6.4248,6.4258,6.4257,6.4263,6.4194,6.418,6.4255,6.4255,6.4255,6.4255,6.4255,6.4255,6.3684,6.3746,6.3763,6.3841,6.387,6.3926,6.3952,6.3987,6.4018,6.4088,6.413,6.4152,6.419,6.4245,6.4291,6.43,6.432,6.4331,6.4339,6.4275,6.4267,6.426,6.4247,6.4334,6.4334,6.4405,6.4405,6.4406]}]]